[[{"header":{"parameterUnit":"m.s-1","parameterCategory":1,"la1":30.2991,"la2":30.254,"lo1":-89.0895,"lo2":-89.0444,"dy":0.0017,"dx":0.0017,"nx":28,"ny":28,"refTime":"2025-12-24T03:00:00:Z","depth":0,"parameterNumber":2,"parameterNumberName":"U-component_of_WINDS"},"data":[0,0,0,0,0,0,0,0,0,0,0,0,0,0,0,0,0,0,0,0,0,0,0,0,0,0,0,0,0,0,0,0,0,0,0,0,0,0,0,0,0,0,0,0,0,0,0,0,0,0,0,0,0,0,0,0,0,0,1.1865,1.1866,0,1.1958,1.1959,1.196,1.1987,1.1987,1.1986,1.1986,1.2083,1.2086,1.2089,0,0,0,0,0,0,0,0,0,0,0,0,0,1.1713,1.1716,1.1865,1.1866,1.1867,1.1958,1.1959,1.196,1.1987,1.1987,1.1986,1.1986,1.2082,1.2086,1.2089,0,0,0,0,0,0,0,0,0,0,0,0,0,1.179,1.1717,1.1865,1.1892,1.1895,1.1957,1.1959,1.1961,1.1988,1.1987,1.1986,1.1985,1.2081,1.2085,1.209,1.2133,0,0,1.2104,1.2106,0,0,0,0,0,0,0,0,1.1785,1.1795,1.1886,1.189,1.1894,1.196,1.1941,1.2018,1.1988,1.1952,1.1986,1.1985,1.2043,1.2051,1.207,1.2137,1.2141,1.2104,1.2107,1.2109,1.211,0,0,0,0,0,0,0,1.178,1.1792,1.1902,1.1888,1.1892,1.19,1.191,1.1956,1.2001,1.1955,1.1958,1.1968,1.2045,1.2065,1.2072,1.2143,1.2104,1.2108,1.2111,1.2113,1.2252,1.2253,0,0,0,0,0,0,1.177,1.1787,1.1899,1.1904,1.1837,1.1903,1.1914,1.194,1.2,1.2009,1.1969,1.1969,1.2058,1.2067,1.2076,1.2131,1.2109,1.2113,1.2116,1.2251,1.2252,1.2253,0,0,0,0,0,0,1.1767,1.178,1.1895,1.1846,1.1862,1.1907,1.1935,1.1942,1.1962,1.201,1.2019,1.1981,1.2058,1.2069,1.2118,1.2134,1.2115,1.2119,1.225,1.2251,1.2252,1.224,0,0,0,0,0,0,1.1762,1.1778,1.1794,1.1846,1.1864,1.1935,1.1936,1.1944,1.197,1.1971,1.2024,1.2032,1.2058,1.2111,1.2123,1.214,1.2123,1.2248,1.225,1.2252,1.2239,1.2241,1.2242,0,0,0,0,0,1.1757,1.1787,1.1795,1.1808,1.1885,1.1936,1.1946,1.1975,1.1971,1.1988,1.2019,1.2031,1.2131,1.2116,1.2129,1.2148,1.2247,1.225,1.2252,1.2239,1.2241,1.2242,0,0,0,0,0,0,1.1736,1.1795,1.1804,1.1852,1.1889,1.1941,1.1963,1.1976,1.2015,1.2014,1.2048,1.206,1.2107,1.2133,1.2116,1.2194,1.219,1.2194,1.2175,1.2177,1.2179,1.2172,1.2127,0,0,0,0,0,1.1737,1.1773,1.1823,1.1861,1.1879,1.1917,1.1941,1.1959,1.1999,1.2015,1.205,1.2088,1.2129,1.2154,1.2194,1.2243,1.2256,1.2263,1.2264,1.2265,1.2269,1.2298,1.2302,1.226,1.226,1.226,0,0,1.174,1.1776,1.1797,1.1857,1.1888,1.1925,1.193,1.1969,1.1998,1.2021,1.207,1.2097,1.2142,1.2192,1.2215,1.2214,1.2284,1.2268,1.2268,1.2272,1.2301,1.2304,1.2308,1.2261,1.2261,1.2261,0,0,1.1764,1.1795,1.183,1.1861,1.1907,1.1933,1.1941,1.1992,1.201,1.2059,1.2078,1.2113,1.2181,1.2213,1.2238,1.2275,1.2288,1.2287,1.2295,1.2323,1.2326,1.2329,1.2343,1.2348,1.2291,1.2291,1.2291,0,1.1761,1.1817,1.1847,1.1885,1.1911,1.1934,1.1971,1.2,1.2057,1.2075,1.2073,1.216,1.2192,1.225,1.2259,1.2279,1.229,1.2281,1.2323,1.2327,1.233,1.2344,1.2349,1.2291,1.2291,1.2291,1.2291,0,1.1812,1.1851,1.1874,1.1929,1.1958,1.1995,1.2031,1.2057,1.2074,1.21,1.215,1.219,1.2238,1.2254,1.227,1.2314,1.2312,1.2316,1.2313,1.2333,1.2347,1.2352,1.229,1.229,1.2291,1.2291,0,0,1.1825,1.1896,1.1904,1.1929,1.1983,1.2014,1.2053,1.21,1.2122,1.2161,1.2195,1.2252,1.2257,1.2286,1.2306,1.233,1.2358,1.2332,1.2334,1.2336,1.241,1.2406,1.2412,1.2367,1.2368,1.2369,1.2406,0,1.1856,1.1926,1.1954,1.201,1.2047,1.207,1.2104,1.2141,1.2167,1.2203,1.2232,1.2272,1.2275,1.2292,1.2317,1.2349,1.2373,1.2347,1.2399,1.2401,1.2387,1.2419,1.2415,1.2448,1.2411,1.2412,1.2413,0,1.1901,1.194,1.2,1.205,1.2067,1.2097,1.2142,1.2176,1.2219,1.2236,1.2269,1.2288,1.233,1.2324,1.2384,1.2366,1.2389,1.2408,1.241,1.2416,1.2408,1.2426,1.2459,1.2464,1.2421,1.2421,1.242,0,1.1905,1.1973,1.2018,1.2039,1.2098,1.2118,1.2144,1.2186,1.2213,1.2253,1.2271,1.2316,1.2341,1.2376,1.2407,1.24,1.2464,1.2461,1.248,1.248,1.2493,1.2491,1.2531,1.2508,1.2507,1.2507,1.2507,0,1.1936,1.1972,1.202,1.2048,1.2089,1.2122,1.2162,1.219,1.2227,1.2261,1.2284,1.2316,1.2355,1.2392,1.2417,1.2463,1.2474,1.249,1.2496,1.2488,1.2486,1.2503,1.2502,1.2509,1.2508,1.2508,1.2508,0,1.1947,1.198,1.2031,1.2083,1.2097,1.2125,1.217,1.2199,1.2226,1.2269,1.2281,1.2324,1.2369,1.2404,1.2462,1.2479,1.2528,1.2535,1.2513,1.2516,1.2534,1.2532,1.2586,1.2595,1.2566,1.2566,1.2566,0,1.1964,1.1993,1.2048,1.2072,1.2098,1.2137,1.2164,1.2198,1.2226,1.2277,1.2299,1.2346,1.2385,1.2456,1.2493,1.2538,1.2546,1.2562,1.2553,1.2544,1.2546,1.2544,1.2548,1.2563,1.2563,1.2563,1.2563,0,1.1992,1.2008,1.2046,1.2091,1.2123,1.216,1.2198,1.2216,1.2257,1.2287,1.2333,1.2363,1.2423,1.2469,1.2519,1.2546,1.2562,1.2566,1.2573,1.2565,1.2551,1.2559,1.2516,1.2564,1.2564,1.2564,1.2564,1.2564,1.2008,1.2034,1.2077,1.212,1.2151,1.2186,1.2215,1.2247,1.2285,1.2336,1.2354,1.2402,1.2445,1.2513,1.2541,1.2579,1.258,1.259,1.2592,1.2594,1.2594,1.2545,1.2588,1.2588,1.2588,1.2588,1.2588,0,1.2037,1.2066,1.2105,1.2156,1.219,1.2202,1.2244,1.2272,1.2313,1.2352,1.239,1.2443,1.2488,1.2529,1.2577,1.2599,1.2608,1.2611,1.2609,1.2616,1.259,1.2579,1.2603,1.2603,1.2603,1.2603,1.2603,1.2603,1.2056,1.2102,1.2123,1.2185,1.2214,1.226,1.2284,1.2316,1.2347,1.2406,1.2443,1.247,1.251,1.256,1.2603,1.2614,1.263,1.2631,1.2644,1.2619,1.2617,1.2615,1.2606,1.2634,1.2634,1.2666,1.2667,1.2667]},{"header":{"parameterUnit":"m.s-1","parameterCategory":1,"la1":30.2991,"la2":30.254,"lo1":-89.0895,"lo2":-89.0444,"dy":0.0017,"dx":0.0017,"nx":28,"ny":28,"refTime":"2025-12-24T03:00:00:Z","depth":0,"parameterNumber":3,"parameterNumberName":"V-component_of_WINDS"},"data":[0,0,0,0,0,0,0,0,0,0,0,0,0,0,0,0,0,0,0,0,0,0,0,0,0,0,0,0,0,0,0,0,0,0,0,0,0,0,0,0,0,0,0,0,0,0,0,0,0,0,0,0,0,0,0,0,0,0,0.9054,0.9054,0,0.9024,0.9024,0.9024,0.9012,0.9013,0.9013,0.9013,0.898,0.8979,0.8978,0,0,0,0,0,0,0,0,0,0,0,0,0,0.9098,0.9098,0.9054,0.9054,0.9053,0.9024,0.9024,0.9024,0.9012,0.9013,0.9013,0.9013,0.8981,0.8979,0.8978,0,0,0,0,0,0,0,0,0,0,0,0,0,0.9075,0.9097,0.9054,0.9044,0.9043,0.9025,0.9024,0.9024,0.9012,0.9013,0.9013,0.9013,0.8981,0.898,0.8978,0.8966,0,0,0.8974,0.8973,0,0,0,0,0,0,0,0,0.9076,0.9073,0.9046,0.9045,0.9044,0.9022,0.9028,0.9004,0.9012,0.9024,0.9013,0.9013,0.8994,0.8991,0.8986,0.8965,0.8963,0.8974,0.8973,0.8972,0.8972,0,0,0,0,0,0,0,0.9078,0.9074,0.9042,0.9046,0.9044,0.9041,0.9037,0.9023,0.9008,0.9023,0.9022,0.9019,0.8993,0.8987,0.8985,0.8963,0.8974,0.8972,0.8971,0.8971,0.893,0.893,0,0,0,0,0,0,0.9081,0.9076,0.9043,0.9041,0.9061,0.904,0.9036,0.9029,0.9009,0.9006,0.9019,0.9019,0.8989,0.8986,0.8983,0.8968,0.8972,0.8971,0.897,0.8931,0.893,0.893,0,0,0,0,0,0,0.9082,0.9079,0.9044,0.9058,0.9054,0.9039,0.9031,0.9028,0.9022,0.9005,0.9003,0.9015,0.8989,0.8986,0.8971,0.8967,0.897,0.8969,0.8931,0.8931,0.893,0.8937,0,0,0,0,0,0,0.9084,0.9079,0.9075,0.9058,0.9053,0.9033,0.9031,0.9028,0.902,0.9019,0.9001,0.8998,0.8989,0.8973,0.8969,0.8965,0.8968,0.8931,0.8931,0.893,0.8937,0.8937,0.8937,0,0,0,0,0,0.9085,0.9078,0.9075,0.9071,0.9048,0.9033,0.903,0.902,0.902,0.9015,0.9004,0.8999,0.8968,0.8972,0.8967,0.8962,0.8931,0.8931,0.893,0.8937,0.8937,0.8937,0,0,0,0,0,0,0.9094,0.9075,0.9072,0.9059,0.9048,0.9031,0.9025,0.902,0.9008,0.9007,0.8995,0.8991,0.8977,0.8968,0.8973,0.895,0.8949,0.8948,0.8956,0.8956,0.8956,0.8958,0.8967,0,0,0,0,0,0.9094,0.9084,0.9068,0.9058,0.9053,0.904,0.9033,0.9026,0.9014,0.9008,0.8997,0.8984,0.8971,0.8963,0.895,0.8936,0.8932,0.8931,0.8931,0.8931,0.8929,0.892,0.892,0.8929,0.8929,0.8929,0,0,0.9095,0.9084,0.9078,0.906,0.905,0.9039,0.9036,0.9025,0.9016,0.9006,0.8992,0.8983,0.8968,0.8953,0.8946,0.8945,0.8926,0.893,0.893,0.8929,0.892,0.8919,0.8918,0.8928,0.8928,0.8928,0,0,0.909,0.9081,0.9072,0.9062,0.9048,0.9039,0.9037,0.9021,0.9015,0.9,0.8992,0.8982,0.896,0.8949,0.8941,0.8932,0.8927,0.8929,0.8928,0.8919,0.8919,0.8918,0.8914,0.8913,0.8928,0.8928,0.8928,0,0.9093,0.9077,0.9067,0.9056,0.9048,0.904,0.903,0.902,0.9002,0.8997,0.8996,0.8969,0.8958,0.8941,0.8938,0.8932,0.8928,0.893,0.892,0.8919,0.8918,0.8914,0.8913,0.8928,0.8928,0.8928,0.8928,0,0.908,0.9069,0.9063,0.9047,0.9038,0.9027,0.9015,0.9007,0.9001,0.8993,0.8977,0.8964,0.8948,0.8944,0.8938,0.8925,0.8925,0.8922,0.8922,0.8918,0.8914,0.8913,0.8928,0.8928,0.8928,0.8928,0,0,0.908,0.9059,0.9056,0.9049,0.9032,0.9023,0.9012,0.8997,0.899,0.8978,0.8967,0.8949,0.8947,0.8937,0.893,0.8923,0.8916,0.8921,0.892,0.892,0.89,0.8902,0.8901,0.8912,0.8912,0.8911,0.8901,0,0.9073,0.9054,0.9045,0.9029,0.9018,0.9009,0.8999,0.8988,0.8979,0.8968,0.8958,0.8945,0.8943,0.8937,0.8929,0.8918,0.8911,0.8919,0.8901,0.8901,0.8905,0.8899,0.8901,0.8892,0.89,0.89,0.8899,0,0.9063,0.9051,0.9034,0.9018,0.9014,0.9005,0.899,0.898,0.8966,0.896,0.895,0.8943,0.8929,0.893,0.8911,0.8916,0.8908,0.8902,0.8901,0.8899,0.89,0.8896,0.8889,0.8887,0.8897,0.8897,0.8897,0,0.9064,0.9044,0.9031,0.9025,0.9006,0.9,0.8992,0.8978,0.897,0.8957,0.8951,0.8937,0.8929,0.8917,0.8906,0.8907,0.8888,0.8887,0.8882,0.8882,0.8878,0.8878,0.8869,0.8873,0.8873,0.8873,0.8873,0,0.9057,0.9047,0.9031,0.9023,0.9012,0.9001,0.8989,0.898,0.8968,0.8957,0.8949,0.8939,0.8925,0.8913,0.8904,0.8889,0.8886,0.888,0.8877,0.888,0.8881,0.8875,0.8875,0.8873,0.8873,0.8873,0.8873,0,0.9056,0.9046,0.9031,0.9015,0.901,0.9002,0.8988,0.8979,0.897,0.8957,0.8953,0.8938,0.8924,0.8911,0.8892,0.8886,0.8871,0.8868,0.8876,0.8874,0.8869,0.8869,0.8855,0.8852,0.8859,0.8859,0.8859,0,0.9052,0.9044,0.9027,0.902,0.9012,0.9001,0.8992,0.8981,0.8972,0.8955,0.8949,0.8934,0.8921,0.8898,0.8885,0.887,0.8867,0.8863,0.8864,0.8867,0.8866,0.8866,0.8865,0.8863,0.8862,0.8862,0.8862,0,0.9046,0.9041,0.903,0.9017,0.9007,0.8995,0.8984,0.8978,0.8964,0.8955,0.894,0.8931,0.8911,0.8896,0.8879,0.887,0.8863,0.8862,0.886,0.8863,0.8867,0.8864,0.8875,0.8862,0.8862,0.8862,0.8862,0.8862,0.9044,0.9036,0.9023,0.901,0.9,0.8989,0.898,0.897,0.8958,0.8942,0.8936,0.8921,0.8906,0.8883,0.8874,0.8861,0.886,0.8857,0.8856,0.8855,0.8856,0.887,0.8858,0.8858,0.8858,0.8858,0.8858,0,0.9037,0.9028,0.9016,0.9001,0.899,0.8986,0.8973,0.8964,0.8951,0.8939,0.8926,0.8909,0.8894,0.888,0.8864,0.8857,0.8854,0.8853,0.8853,0.8851,0.8858,0.8861,0.8856,0.8856,0.8856,0.8856,0.8856,0.8856,0.9032,0.9019,0.9012,0.8994,0.8984,0.897,0.8963,0.8952,0.8942,0.8924,0.8912,0.8903,0.8889,0.8872,0.8858,0.8854,0.8848,0.8849,0.8844,0.885,0.8851,0.8851,0.8854,0.8848,0.8848,0.8838,0.8838,0.8838]}]]